Simultaneous Nadir Overpasses (SNOs) Predictions

Prediction of SNOs between AQUA and NOAA-19 Satellite Orbit:

Table of predicted SNOs for the next 14.0 days since TLE Epoch: 1/25/2013
Index Date (AQUA) Time (AQUA) Lat,Lon (AQUA) SZA (AQUA ) Date (NOAA-19) Time (NOAA-19) Lat,Lon (NOAA-19) SZA (NOAA-19 ) Distance(km) Time Diff (sec)
1 01/27/2013 06:11:56 46.00, -60.55 143.45 01/27/2013 06:10:57 45.82, -59.68 143.21 70.49 59
2 01/27/2013 07:00:49 -48.17, 107.91 38.30 01/27/2013 07:01:25 -48.09, 108.47 38.62 42.93 36
3 01/29/2013 10:41:13 76.41, 7.11 94.64 01/29/2013 10:40:00 76.02, 5.17 94.43 66.61 73
4 01/29/2013 11:44:49 -48.98, 37.18 39.41 01/29/2013 11:45:39 -48.86, 37.70 39.70 40.43 50
5 01/31/2013 15:17:55 51.04, -35.84 68.69 01/31/2013 15:16:42 50.95, -36.36 68.51 38.17 73
6 01/31/2013 16:28:49 -49.76, -33.55 40.54 01/31/2013 16:29:52 -49.66, -33.05 40.85 37.83 63
7 02/02/2013 20:01:43 49.58,-106.26 66.68 02/02/2013 20:00:43 49.49,-106.80 66.50 39.60 60
8 02/02/2013 21:11:15 -56.03,-101.62 46.50 02/02/2013 21:12:28 -55.93,-100.94 46.84 43.36 73
9 02/05/2013 00:45:42 48.79,-176.99 65.28 02/05/2013 00:44:55 48.69,-177.54 65.09 42.09 47
10 02/05/2013 01:34:20 -46.08, -8.28 117.26 02/05/2013 01:35:03 -45.91, -9.12 117.52 67.25 43
11 02/07/2013 05:29:40 47.97, 112.29 63.84 02/07/2013 05:29:07 47.90, 111.70 63.67 44.83 33




NCC Satellite Simultaneous Nadir Overpasses (SNOs) Prediction Service
